owner,sensor,date,latitude,longitude,vertical_datum,mass_concentration_of_oxygen_in_sea_water,qcFlag 
DISL,ioos:station:DISL:CATA:1,2017-02-01T00:00:00Z,30.3085,-88.1395,2.124,10.97,1111122 
DISL,ioos:station:DISL:CATA:1,2017-02-01T00:30:00Z,30.3085,-88.1395,2.129,10.88,1111122 
DISL,ioos:station:DISL:CATA:1,2017-02-01T01:00:00Z,30.3085,-88.1395,2.136,10.77,1111122 
DISL,ioos:station:DISL:CATA:1,2017-02-01T01:30:00Z,30.3085,-88.1395,2.148,10.64,1111122 
DISL,ioos:station:DISL:CATA:1,2017-02-01T02:00:00Z,30.3085,-88.1395,2.166,10.56,1111122 
DISL,ioos:station:DISL:CATA:1,2017-02-01T02:30:00Z,30.3085,-88.1395,2.189,10.66,1111122 
DISL,ioos:station:DISL:CATA:1,2017-02-01T03:00:00Z,30.3085,-88.1395,2.195,10.69,1111122 
DISL,ioos:station:DISL:CATA:1,2017-02-01T03:30:00Z,30.3085,-88.1395,2.201,10.59,1111122 
DISL,ioos:station:DISL:CATA:1,2017-02-01T04:00:00Z,30.3085,-88.1395,2.198,10.57,1111122 
DISL,ioos:station:DISL:CATA:1,2017-02-01T04:30:00Z,30.3085,-88.1395,2.209,10.51,1111122 
DISL,ioos:station:DISL:CATA:1,2017-02-01T05:00:00Z,30.3085,-88.1395,2.223,10.48,1111122 
DISL,ioos:station:DISL:CATA:1,2017-02-01T05:30:00Z,30.3085,-88.1395,2.227,10.47,1111122 
DISL,ioos:station:DISL:CATA:1,2017-02-01T06:00:00Z,30.3085,-88.1395,2.221,10.38,1111122 
DISL,ioos:station:DISL:CATA:1,2017-02-01T06:30:00Z,30.3085,-88.1395,2.216,10.17,1111122 
DISL,ioos:station:DISL:CATA:1,2017-02-01T07:00:00Z,30.3085,-88.1395,2.216,9.83,1111122 
DISL,ioos:station:DISL:CATA:1,2017-02-01T07:30:00Z,30.3085,-88.1395,2.215,9.56,1111122 
DISL,ioos:station:DISL:CATA:1,2017-02-01T08:00:00Z,30.3085,-88.1395,2.212,9.14,1111122 
DISL,ioos:station:DISL:CATA:1,2017-02-01T08:30:00Z,30.3085,-88.1395,2.204,9.07,1111122 
DISL,ioos:station:DISL:CATA:1,2017-02-01T09:00:00Z,30.3085,-88.1395,2.194,9.41,1111122 
DISL,ioos:station:DISL:CATA:1,2017-02-01T09:30:00Z,30.3085,-88.1395,2.186,8.93,1111122 
DISL,ioos:station:DISL:CATA:1,2017-02-01T10:00:00Z,30.3085,-88.1395,2.167,8.68,1111122 
DISL,ioos:station:DISL:CATA:1,2017-02-01T10:30:00Z,30.3085,-88.1395,2.149,9.55,1111122 
DISL,ioos:station:DISL:CATA:1,2017-02-01T11:00:00Z,30.3085,-88.1395,2.128,9.52,1111122 
DISL,ioos:station:DISL:CATA:1,2017-02-01T11:30:00Z,30.3085,-88.1395,2.104,9.48,1111122 
DISL,ioos:station:DISL:CATA:1,2017-02-01T12:00:00Z,30.3085,-88.1395,2.08,9.47,1111122 
DISL,ioos:station:DISL:CATA:1,2017-02-01T12:30:00Z,30.3085,-88.1395,2.052,9.15,1111122 
DISL,ioos:station:DISL:CATA:1,2017-02-01T13:00:00Z,30.3085,-88.1395,2.032,9.06,1111122 
DISL,ioos:station:DISL:CATA:1,2017-02-01T13:30:00Z,30.3085,-88.1395,2.016,9.24,1111122 
DISL,ioos:station:DISL:CATA:1,2017-02-01T14:00:00Z,30.3085,-88.1395,2.004,9.61,1111122 
DISL,ioos:station:DISL:CATA:1,2017-02-01T14:30:00Z,30.3085,-88.1395,2.002,9.74,1111122 
DISL,ioos:station:DISL:CATA:1,2017-02-01T15:00:00Z,30.3085,-88.1395,2.01,9.74,1111122 
DISL,ioos:station:DISL:CATA:1,2017-02-01T15:30:00Z,30.3085,-88.1395,2.025,9.83,1111122 
DISL,ioos:station:DISL:CATA:1,2017-02-01T16:00:00Z,30.3085,-88.1395,2.039,10.02,1111122 
DISL,ioos:station:DISL:CATA:1,2017-02-01T16:30:00Z,30.3085,-88.1395,2.049,10.32,1111122 
DISL,ioos:station:DISL:CATA:1,2017-02-01T17:00:00Z,30.3085,-88.1395,2.077,10.42,1111122 
DISL,ioos:station:DISL:CATA:1,2017-02-01T17:30:00Z,30.3085,-88.1395,2.079,10.74,1111122 
DISL,ioos:station:DISL:CATA:1,2017-02-01T18:00:00Z,30.3085,-88.1395,2.096,10.84,1111122 
DISL,ioos:station:DISL:CATA:1,2017-02-01T18:30:00Z,30.3085,-88.1395,2.099,10.41,1111122 
DISL,ioos:station:DISL:CATA:1,2017-02-01T19:00:00Z,30.3085,-88.1395,2.109,10.49,1111122 
DISL,ioos:station:DISL:CATA:1,2017-02-01T19:30:00Z,30.3085,-88.1395,2.12,9.89,1111122 
DISL,ioos:station:DISL:CATA:1,2017-02-01T20:00:00Z,30.3085,-88.1395,2.139,9.95,1111122 
DISL,ioos:station:DISL:CATA:1,2017-02-01T20:30:00Z,30.3085,-88.1395,2.15,9.83,1111122 
DISL,ioos:station:DISL:CATA:1,2017-02-01T21:00:00Z,30.3085,-88.1395,2.166,9.43,1111122 
DISL,ioos:station:DISL:CATA:1,2017-02-01T21:30:00Z,30.3085,-88.1395,2.182,9.34,1111122 
DISL,ioos:station:DISL:CATA:1,2017-02-01T22:00:00Z,30.3085,-88.1395,2.207,9.33,1111122 
DISL,ioos:station:DISL:CATA:1,2017-02-01T22:30:00Z,30.3085,-88.1395,2.193,9.74,1111122 
DISL,ioos:station:DISL:CATA:1,2017-02-01T23:00:00Z,30.3085,-88.1395,2.186,9.77,1111122 
DISL,ioos:station:DISL:CATA:1,2017-02-01T23:30:00Z,30.3085,-88.1395,2.184,9.63,1111122 
DISL,ioos:station:DISL:CATA:1,2017-02-02T00:00:00Z,30.3085,-88.1395,2.177,9.42,1111122 
DISL,ioos:station:DISL:CATA:1,2017-02-02T00:30:00Z,30.3085,-88.1395,2.171,9.53,1111122 
DISL,ioos:station:DISL:CATA:1,2017-02-02T01:00:00Z,30.3085,-88.1395,2.16,9.75,1111122 
DISL,ioos:station:DISL:CATA:1,2017-02-02T01:30:00Z,30.3085,-88.1395,2.158,11.18,1111122 
DISL,ioos:station:DISL:CATA:1,2017-02-02T02:00:00Z,30.3085,-88.1395,2.159,11.38,1111122 
DISL,ioos:station:DISL:CATA:1,2017-02-02T02:30:00Z,30.3085,-88.1395,2.159,11.67,1111122 
DISL,ioos:station:DISL:CATA:1,2017-02-02T03:00:00Z,30.3085,-88.1395,2.161,11.77,1111122 
DISL,ioos:station:DISL:CATA:1,2017-02-02T03:30:00Z,30.3085,-88.1395,2.169,11.92,1111122 
DISL,ioos:station:DISL:CATA:1,2017-02-02T04:00:00Z,30.3085,-88.1395,2.181,11.97,1111122 
DISL,ioos:station:DISL:CATA:1,2017-02-02T04:30:00Z,30.3085,-88.1395,2.182,11.73,1111122 
DISL,ioos:station:DISL:CATA:1,2017-02-02T05:00:00Z,30.3085,-88.1395,2.177,11.12,1111122 
DISL,ioos:station:DISL:CATA:1,2017-02-02T05:30:00Z,30.3085,-88.1395,2.177,10.71,1111122 
DISL,ioos:station:DISL:CATA:1,2017-02-02T06:00:00Z,30.3085,-88.1395,2.169,10.38,1111122 
DISL,ioos:station:DISL:CATA:1,2017-02-02T06:30:00Z,30.3085,-88.1395,2.167,9.94,1111122 
DISL,ioos:station:DISL:CATA:1,2017-02-02T07:00:00Z,30.3085,-88.1395,2.169,9.6,1111122 
DISL,ioos:station:DISL:CATA:1,2017-02-02T07:30:00Z,30.3085,-88.1395,2.155,9.31,1111122 
DISL,ioos:station:DISL:CATA:1,2017-02-02T08:00:00Z,30.3085,-88.1395,2.154,9.17,1111122 
DISL,ioos:station:DISL:CATA:1,2017-02-02T08:30:00Z,30.3085,-88.1395,2.16,9.19,1111122 
DISL,ioos:station:DISL:CATA:1,2017-02-02T09:00:00Z,30.3085,-88.1395,2.155,9.38,1111122 
DISL,ioos:station:DISL:CATA:1,2017-02-02T09:30:00Z,30.3085,-88.1395,2.155,9.07,1111122 
DISL,ioos:station:DISL:CATA:1,2017-02-02T10:00:00Z,30.3085,-88.1395,2.163,8.86,1111122 
DISL,ioos:station:DISL:CATA:1,2017-02-02T10:30:00Z,30.3085,-88.1395,2.152,8.77,1111122 
DISL,ioos:station:DISL:CATA:1,2017-02-02T11:00:00Z,30.3085,-88.1395,2.14,8.74,1111122 
DISL,ioos:station:DISL:CATA:1,2017-02-02T11:30:00Z,30.3085,-88.1395,2.123,8.86,1111122 
DISL,ioos:station:DISL:CATA:1,2017-02-02T12:00:00Z,30.3085,-88.1395,2.106,9.21,1111122 
DISL,ioos:station:DISL:CATA:1,2017-02-02T12:30:00Z,30.3085,-88.1395,2.083,9.46,1111122 
DISL,ioos:station:DISL:CATA:1,2017-02-02T13:00:00Z,30.3085,-88.1395,2.067,9.6,1111122 
DISL,ioos:station:DISL:CATA:1,2017-02-02T13:30:00Z,30.3085,-88.1395,2.054,9.73,1111122 
DISL,ioos:station:DISL:CATA:1,2017-02-02T14:00:00Z,30.3085,-88.1395,2.057,9.83,1111122 
DISL,ioos:station:DISL:CATA:1,2017-02-02T14:30:00Z,30.3085,-88.1395,2.063,9.96,1111122 
DISL,ioos:station:DISL:CATA:1,2017-02-02T15:00:00Z,30.3085,-88.1395,2.08,10.13,1111122 
DISL,ioos:station:DISL:CATA:1,2017-02-02T15:30:00Z,30.3085,-88.1395,2.094,10.26,1111122 
DISL,ioos:station:DISL:CATA:1,2017-02-02T16:00:00Z,30.3085,-88.1395,2.111,10.17,1111122 
DISL,ioos:station:DISL:CATA:1,2017-02-02T16:30:00Z,30.3085,-88.1395,2.127,9.69,1111122 
DISL,ioos:station:DISL:CATA:1,2017-02-02T17:00:00Z,30.3085,-88.1395,2.145,9.48,1111122 
DISL,ioos:station:DISL:CATA:1,2017-02-02T17:30:00Z,30.3085,-88.1395,2.142,9.87,1111122 
DISL,ioos:station:DISL:CATA:1,2017-02-02T18:00:00Z,30.3085,-88.1395,2.14,11.19,1111122 
DISL,ioos:station:DISL:CATA:1,2017-02-02T18:30:00Z,30.3085,-88.1395,2.151,11.65,1111122 
DISL,ioos:station:DISL:CATA:1,2017-02-02T19:00:00Z,30.3085,-88.1395,2.16,11.69,1111122 
DISL,ioos:station:DISL:CATA:1,2017-02-02T19:30:00Z,30.3085,-88.1395,2.169,11.81,1111122 
DISL,ioos:station:DISL:CATA:1,2017-02-02T20:00:00Z,30.3085,-88.1395,2.178,10.08,1111122 
DISL,ioos:station:DISL:CATA:1,2017-02-02T20:30:00Z,30.3085,-88.1395,2.195,9.15,1111122 
DISL,ioos:station:DISL:CATA:1,2017-02-02T21:00:00Z,30.3085,-88.1395,2.2,8.98,1111122 
DISL,ioos:station:DISL:CATA:1,2017-02-02T21:30:00Z,30.3085,-88.1395,2.202,9.05,1111122 
DISL,ioos:station:DISL:CATA:1,2017-02-02T22:00:00Z,30.3085,-88.1395,2.216,9.07,1111122 
DISL,ioos:station:DISL:CATA:1,2017-02-02T22:30:00Z,30.3085,-88.1395,2.215,9.16,1111122 
DISL,ioos:station:DISL:CATA:1,2017-02-02T23:00:00Z,30.3085,-88.1395,2.22,9.09,1111122 
DISL,ioos:station:DISL:CATA:1,2017-02-02T23:30:00Z,30.3085,-88.1395,2.217,8.88,1111122 
DISL,ioos:station:DISL:CATA:1,2017-02-03T00:00:00Z,30.3085,-88.1395,2.213,8.99,1111122 
DISL,ioos:station:DISL:CATA:1,2017-02-03T00:30:00Z,30.3085,-88.1395,2.19,9.03,1111122 
DISL,ioos:station:DISL:CATA:1,2017-02-03T01:00:00Z,30.3085,-88.1395,2.18,9.04,1111122 
DISL,ioos:station:DISL:CATA:1,2017-02-03T01:30:00Z,30.3085,-88.1395,2.166,9.13,1111122 
DISL,ioos:station:DISL:CATA:1,2017-02-03T02:00:00Z,30.3085,-88.1395,2.152,9.39,1111122 
DISL,ioos:station:DISL:CATA:1,2017-02-03T02:30:00Z,30.3085,-88.1395,2.127,10.73,1111122 
DISL,ioos:station:DISL:CATA:1,2017-02-03T03:00:00Z,30.3085,-88.1395,2.119,10.47,1111122 
DISL,ioos:station:DISL:CATA:1,2017-02-03T03:30:00Z,30.3085,-88.1395,2.133,11.46,1111122 
DISL,ioos:station:DISL:CATA:1,2017-02-03T04:00:00Z,30.3085,-88.1395,2.133,11.23,1111122 
DISL,ioos:station:DISL:CATA:1,2017-02-03T04:30:00Z,30.3085,-88.1395,2.136,10.58,1111122 
DISL,ioos:station:DISL:CATA:1,2017-02-03T05:00:00Z,30.3085,-88.1395,2.123,10.2,1111122 
DISL,ioos:station:DISL:CATA:1,2017-02-03T05:30:00Z,30.3085,-88.1395,2.127,9.99,1111122 
DISL,ioos:station:DISL:CATA:1,2017-02-03T06:00:00Z,30.3085,-88.1395,2.114,9.91,1111122 
DISL,ioos:station:DISL:CATA:1,2017-02-03T06:30:00Z,30.3085,-88.1395,2.101,9.92,1111122 
DISL,ioos:station:DISL:CATA:1,2017-02-03T07:00:00Z,30.3085,-88.1395,2.088,9.9,1111122 
DISL,ioos:station:DISL:CATA:1,2017-02-03T07:30:00Z,30.3085,-88.1395,2.069,10.22,1111122 
DISL,ioos:station:DISL:CATA:1,2017-02-03T08:00:00Z,30.3085,-88.1395,2.069,10.68,1111122 
DISL,ioos:station:DISL:CATA:1,2017-02-03T08:30:00Z,30.3085,-88.1395,2.073,10.8,1111122 
DISL,ioos:station:DISL:CATA:1,2017-02-03T09:00:00Z,30.3085,-88.1395,2.077,10.72,1111122 
DISL,ioos:station:DISL:CATA:1,2017-02-03T09:30:00Z,30.3085,-88.1395,2.09,10.62,1111122 
DISL,ioos:station:DISL:CATA:1,2017-02-03T10:00:00Z,30.3085,-88.1395,2.101,10.74,1111122 
DISL,ioos:station:DISL:CATA:1,2017-02-03T10:30:00Z,30.3085,-88.1395,2.107,10.64,1111122 
DISL,ioos:station:DISL:CATA:1,2017-02-03T11:00:00Z,30.3085,-88.1395,2.102,10.52,1111122 
DISL,ioos:station:DISL:CATA:1,2017-02-03T11:30:00Z,30.3085,-88.1395,2.109,10.48,1111122 
DISL,ioos:station:DISL:CATA:1,2017-02-03T12:00:00Z,30.3085,-88.1395,2.099,9.42,1111122 
DISL,ioos:station:DISL:CATA:1,2017-02-03T12:30:00Z,30.3085,-88.1395,2.098,9.61,1111122 
DISL,ioos:station:DISL:CATA:1,2017-02-03T13:00:00Z,30.3085,-88.1395,2.088,9.48,1111122 
DISL,ioos:station:DISL:CATA:1,2017-02-03T13:30:00Z,30.3085,-88.1395,2.088,9.44,1111122 
DISL,ioos:station:DISL:CATA:1,2017-02-03T14:00:00Z,30.3085,-88.1395,2.096,9.63,1111122 
DISL,ioos:station:DISL:CATA:1,2017-02-03T14:30:00Z,30.3085,-88.1395,2.11,10.85,1111122 
DISL,ioos:station:DISL:CATA:1,2017-02-03T15:00:00Z,30.3085,-88.1395,2.116,11.1,1111122 
DISL,ioos:station:DISL:CATA:1,2017-02-03T15:30:00Z,30.3085,-88.1395,2.141,10.91,1111122 
DISL,ioos:station:DISL:CATA:1,2017-02-03T16:00:00Z,30.3085,-88.1395,2.171,11.11,1111122 
DISL,ioos:station:DISL:CATA:1,2017-02-03T16:30:00Z,30.3085,-88.1395,2.195,11.1,1111122 
DISL,ioos:station:DISL:CATA:1,2017-02-03T17:00:00Z,30.3085,-88.1395,2.208,10.92,1111122 
DISL,ioos:station:DISL:CATA:1,2017-02-03T17:30:00Z,30.3085,-88.1395,2.189,10.01,1111122 
DISL,ioos:station:DISL:CATA:1,2017-02-03T18:00:00Z,30.3085,-88.1395,2.173,7.95,1111122 
DISL,ioos:station:DISL:CATA:1,2017-02-03T18:30:00Z,30.3085,-88.1395,2.18,7.77,1111122 
DISL,ioos:station:DISL:CATA:1,2017-02-03T19:00:00Z,30.3085,-88.1395,2.174,7.83,1111122 
DISL,ioos:station:DISL:CATA:1,2017-02-03T19:30:00Z,30.3085,-88.1395,2.167,7.79,1111122 
DISL,ioos:station:DISL:CATA:1,2017-02-03T20:00:00Z,30.3085,-88.1395,2.19,7.64,1111122 
DISL,ioos:station:DISL:CATA:1,2017-02-03T20:30:00Z,30.3085,-88.1395,2.196,7.66,1111122 
DISL,ioos:station:DISL:CATA:1,2017-02-03T21:00:00Z,30.3085,-88.1395,2.197,7.54,1111122 
DISL,ioos:station:DISL:CATA:1,2017-02-03T21:30:00Z,30.3085,-88.1395,2.159,7.69,1111122 
DISL,ioos:station:DISL:CATA:1,2017-02-03T22:00:00Z,30.3085,-88.1395,2.142,7.84,1111122 
DISL,ioos:station:DISL:CATA:1,2017-02-03T22:30:00Z,30.3085,-88.1395,2.138,8.15,1111122 
DISL,ioos:station:DISL:CATA:1,2017-02-03T23:00:00Z,30.3085,-88.1395,2.159,8.08,1111122 
DISL,ioos:station:DISL:CATA:1,2017-02-03T23:30:00Z,30.3085,-88.1395,2.154,8.04,1111122 
DISL,ioos:station:DISL:CATA:1,2017-02-04T00:00:00Z,30.3085,-88.1395,2.134,7.97,1111122 
DISL,ioos:station:DISL:CATA:1,2017-02-04T00:30:00Z,30.3085,-88.1395,2.098,8.04,1111122 
DISL,ioos:station:DISL:CATA:1,2017-02-04T01:00:00Z,30.3085,-88.1395,2.066,8.16,1111122 
DISL,ioos:station:DISL:CATA:1,2017-02-04T01:30:00Z,30.3085,-88.1395,2.044,8.35,1111122 
DISL,ioos:station:DISL:CATA:1,2017-02-04T02:00:00Z,30.3085,-88.1395,2.04,9.77,1111122 
DISL,ioos:station:DISL:CATA:1,2017-02-04T02:30:00Z,30.3085,-88.1395,2.027,10.25,1111122 
DISL,ioos:station:DISL:CATA:1,2017-02-04T03:00:00Z,30.3085,-88.1395,1.998,10.32,1111122 
DISL,ioos:station:DISL:CATA:1,2017-02-04T03:30:00Z,30.3085,-88.1395,1.982,10.29,1111122 
DISL,ioos:station:DISL:CATA:1,2017-02-04T04:00:00Z,30.3085,-88.1395,1.966,10.25,1111122 
DISL,ioos:station:DISL:CATA:1,2017-02-04T04:30:00Z,30.3085,-88.1395,1.942,10.21,1111122 
DISL,ioos:station:DISL:CATA:1,2017-02-04T05:00:00Z,30.3085,-88.1395,1.92,10.18,1111122 
DISL,ioos:station:DISL:CATA:1,2017-02-04T05:30:00Z,30.3085,-88.1395,1.908,10.2,1111122 
DISL,ioos:station:DISL:CATA:1,2017-02-04T06:00:00Z,30.3085,-88.1395,1.884,10.19,1111122 
DISL,ioos:station:DISL:CATA:1,2017-02-04T06:30:00Z,30.3085,-88.1395,1.87,10.24,1111122 
DISL,ioos:station:DISL:CATA:1,2017-02-04T07:00:00Z,30.3085,-88.1395,1.872,10.29,1111122 
DISL,ioos:station:DISL:CATA:1,2017-02-04T07:30:00Z,30.3085,-88.1395,1.857,10.29,1111122 
DISL,ioos:station:DISL:CATA:1,2017-02-04T08:00:00Z,30.3085,-88.1395,1.835,10.18,1111122 
DISL,ioos:station:DISL:CATA:1,2017-02-04T08:30:00Z,30.3085,-88.1395,1.828,10.19,1111122 
DISL,ioos:station:DISL:CATA:1,2017-02-04T09:00:00Z,30.3085,-88.1395,1.828,10.19,1111122 
DISL,ioos:station:DISL:CATA:1,2017-02-04T09:30:00Z,30.3085,-88.1395,1.818,10.19,1111122 
DISL,ioos:station:DISL:CATA:1,2017-02-04T10:00:00Z,30.3085,-88.1395,1.818,10.21,1111122 
DISL,ioos:station:DISL:CATA:1,2017-02-04T10:30:00Z,30.3085,-88.1395,1.824,10.23,1111122 
DISL,ioos:station:DISL:CATA:1,2017-02-04T11:00:00Z,30.3085,-88.1395,1.841,10.21,1111122 
DISL,ioos:station:DISL:CATA:1,2017-02-04T11:30:00Z,30.3085,-88.1395,1.859,10.22,1111122 
DISL,ioos:station:DISL:CATA:1,2017-02-04T12:00:00Z,30.3085,-88.1395,1.883,10.36,1111122 
DISL,ioos:station:DISL:CATA:1,2017-02-04T12:30:00Z,30.3085,-88.1395,1.897,10.37,1111122 
DISL,ioos:station:DISL:CATA:1,2017-02-04T13:00:00Z,30.3085,-88.1395,1.898,10.34,1111122 
DISL,ioos:station:DISL:CATA:1,2017-02-04T13:30:00Z,30.3085,-88.1395,1.902,10.36,1111122 
DISL,ioos:station:DISL:CATA:1,2017-02-04T14:00:00Z,30.3085,-88.1395,1.914,10.41,1111122 
DISL,ioos:station:DISL:CATA:1,2017-02-04T14:30:00Z,30.3085,-88.1395,1.918,10.47,1111122 
DISL,ioos:station:DISL:CATA:1,2017-02-04T15:00:00Z,30.3085,-88.1395,1.937,10.48,1111122 
DISL,ioos:station:DISL:CATA:1,2017-02-04T15:30:00Z,30.3085,-88.1395,1.962,10.5,1111122 
DISL,ioos:station:DISL:CATA:1,2017-02-04T16:00:00Z,30.3085,-88.1395,2.01,10.44,1111122 
DISL,ioos:station:DISL:CATA:1,2017-02-04T16:30:00Z,30.3085,-88.1395,2.042,10.46,1111122 
DISL,ioos:station:DISL:CATA:1,2017-02-04T17:00:00Z,30.3085,-88.1395,2.059,10.63,1111122 
DISL,ioos:station:DISL:CATA:1,2017-02-04T17:30:00Z,30.3085,-88.1395,2.09,10.75,1111122 
DISL,ioos:station:DISL:CATA:1,2017-02-04T18:00:00Z,30.3085,-88.1395,2.12,10.57,1111122 
DISL,ioos:station:DISL:CATA:1,2017-02-04T18:30:00Z,30.3085,-88.1395,2.147,10.73,1111122 
DISL,ioos:station:DISL:CATA:1,2017-02-04T19:00:00Z,30.3085,-88.1395,2.174,11.04,1111122 
DISL,ioos:station:DISL:CATA:1,2017-02-04T19:30:00Z,30.3085,-88.1395,2.194,11.16,1111122 
DISL,ioos:station:DISL:CATA:1,2017-02-04T20:00:00Z,30.3085,-88.1395,2.21,11.43,1111122 
DISL,ioos:station:DISL:CATA:1,2017-02-04T20:30:00Z,30.3085,-88.1395,2.233,11.33,1111122 
DISL,ioos:station:DISL:CATA:1,2017-02-04T21:00:00Z,30.3085,-88.1395,2.256,10.77,1111122 
DISL,ioos:station:DISL:CATA:1,2017-02-04T21:30:00Z,30.3085,-88.1395,2.271,10.48,1111122 
DISL,ioos:station:DISL:CATA:1,2017-02-04T22:00:00Z,30.3085,-88.1395,2.288,10.5,1111122 
DISL,ioos:station:DISL:CATA:1,2017-02-04T22:30:00Z,30.3085,-88.1395,2.289,10.59,1111122 
DISL,ioos:station:DISL:CATA:1,2017-02-04T23:00:00Z,30.3085,-88.1395,2.284,10.74,1111122 
DISL,ioos:station:DISL:CATA:1,2017-02-04T23:30:00Z,30.3085,-88.1395,2.283,10.78,1111122 
DISL,ioos:station:DISL:CATA:1,2017-02-05T00:00:00Z,30.3085,-88.1395,2.278,10.84,1111122 
DISL,ioos:station:DISL:CATA:1,2017-02-05T00:30:00Z,30.3085,-88.1395,2.264,10.79,1111122 
DISL,ioos:station:DISL:CATA:1,2017-02-05T01:00:00Z,30.3085,-88.1395,2.244,10.64,1111122 
DISL,ioos:station:DISL:CATA:1,2017-02-05T01:30:00Z,30.3085,-88.1395,2.22,10.52,1111122 
DISL,ioos:station:DISL:CATA:1,2017-02-05T02:00:00Z,30.3085,-88.1395,2.204,10.76,1111122 
DISL,ioos:station:DISL:CATA:1,2017-02-05T02:30:00Z,30.3085,-88.1395,2.176,10.9,1111122 
DISL,ioos:station:DISL:CATA:1,2017-02-05T03:00:00Z,30.3085,-88.1395,2.154,11.46,1111122 
DISL,ioos:station:DISL:CATA:1,2017-02-05T03:30:00Z,30.3085,-88.1395,2.127,11.67,1111122 
DISL,ioos:station:DISL:CATA:1,2017-02-05T04:00:00Z,30.3085,-88.1395,2.103,12.03,1111122 
DISL,ioos:station:DISL:CATA:1,2017-02-05T04:30:00Z,30.3085,-88.1395,2.072,12.0,1111122 
DISL,ioos:station:DISL:CATA:1,2017-02-05T05:00:00Z,30.3085,-88.1395,2.037,11.45,1111122 
DISL,ioos:station:DISL:CATA:1,2017-02-05T05:30:00Z,30.3085,-88.1395,2.005,11.5,1111122 
DISL,ioos:station:DISL:CATA:1,2017-02-05T06:00:00Z,30.3085,-88.1395,1.971,11.47,1111122 
DISL,ioos:station:DISL:CATA:1,2017-02-05T06:30:00Z,30.3085,-88.1395,1.95,11.53,1111122 
DISL,ioos:station:DISL:CATA:1,2017-02-05T07:00:00Z,30.3085,-88.1395,1.937,11.49,1111122 
DISL,ioos:station:DISL:CATA:1,2017-02-05T07:30:00Z,30.3085,-88.1395,1.922,11.72,1111122 
DISL,ioos:station:DISL:CATA:1,2017-02-05T08:00:00Z,30.3085,-88.1395,1.897,11.56,1111122 
DISL,ioos:station:DISL:CATA:1,2017-02-05T08:30:00Z,30.3085,-88.1395,1.884,11.53,1111122 
DISL,ioos:station:DISL:CATA:1,2017-02-05T09:00:00Z,30.3085,-88.1395,1.899,11.78,1111122 
DISL,ioos:station:DISL:CATA:1,2017-02-05T09:30:00Z,30.3085,-88.1395,1.903,11.81,1111122 
DISL,ioos:station:DISL:CATA:1,2017-02-05T10:00:00Z,30.3085,-88.1395,1.914,11.78,1111122 
DISL,ioos:station:DISL:CATA:1,2017-02-05T10:30:00Z,30.3085,-88.1395,1.92,11.81,1111122 
DISL,ioos:station:DISL:CATA:1,2017-02-05T11:00:00Z,30.3085,-88.1395,1.926,11.87,1111122 
DISL,ioos:station:DISL:CATA:1,2017-02-05T11:30:00Z,30.3085,-88.1395,1.937,11.3,1111122 
DISL,ioos:station:DISL:CATA:1,2017-02-05T12:00:00Z,30.3085,-88.1395,1.959,11.36,1111122 
DISL,ioos:station:DISL:CATA:1,2017-02-05T12:30:00Z,30.3085,-88.1395,1.966,11.38,1111122 
DISL,ioos:station:DISL:CATA:1,2017-02-05T13:00:00Z,30.3085,-88.1395,1.972,11.51,1111122 
DISL,ioos:station:DISL:CATA:1,2017-02-05T13:30:00Z,30.3085,-88.1395,2.003,11.54,1111122 
DISL,ioos:station:DISL:CATA:1,2017-02-05T14:00:00Z,30.3085,-88.1395,2.019,11.77,1111122 
DISL,ioos:station:DISL:CATA:1,2017-02-05T14:30:00Z,30.3085,-88.1395,2.039,11.87,1111122 
DISL,ioos:station:DISL:CATA:1,2017-02-05T15:00:00Z,30.3085,-88.1395,2.054,11.78,1111122 
DISL,ioos:station:DISL:CATA:1,2017-02-05T15:30:00Z,30.3085,-88.1395,2.09,11.44,1111122 
DISL,ioos:station:DISL:CATA:1,2017-02-05T16:00:00Z,30.3085,-88.1395,2.109,11.53,1111122 
DISL,ioos:station:DISL:CATA:1,2017-02-05T16:30:00Z,30.3085,-88.1395,2.122,11.56,1111122 
DISL,ioos:station:DISL:CATA:1,2017-02-05T17:00:00Z,30.3085,-88.1395,2.139,11.94,1111122 
DISL,ioos:station:DISL:CATA:1,2017-02-05T17:30:00Z,30.3085,-88.1395,2.164,11.92,1111122 
DISL,ioos:station:DISL:CATA:1,2017-02-05T18:00:00Z,30.3085,-88.1395,2.173,11.42,1111122 
DISL,ioos:station:DISL:CATA:1,2017-02-05T18:30:00Z,30.3085,-88.1395,2.187,11.25,1111122 
DISL,ioos:station:DISL:CATA:1,2017-02-05T19:00:00Z,30.3085,-88.1395,2.207,10.53,1111122 
DISL,ioos:station:DISL:CATA:1,2017-02-05T19:30:00Z,30.3085,-88.1395,2.227,9.95,1111122 
DISL,ioos:station:DISL:CATA:1,2017-02-05T20:00:00Z,30.3085,-88.1395,2.238,9.71,1111122 
DISL,ioos:station:DISL:CATA:1,2017-02-05T20:30:00Z,30.3085,-88.1395,2.258,9.49,1111122 
DISL,ioos:station:DISL:CATA:1,2017-02-05T21:00:00Z,30.3085,-88.1395,2.274,9.16,1111122 
DISL,ioos:station:DISL:CATA:1,2017-02-05T21:30:00Z,30.3085,-88.1395,2.289,9.41,1111122 
DISL,ioos:station:DISL:CATA:1,2017-02-05T22:00:00Z,30.3085,-88.1395,2.295,9.64,1111122 
DISL,ioos:station:DISL:CATA:1,2017-02-05T22:30:00Z,30.3085,-88.1395,2.296,10.1,1111122 
DISL,ioos:station:DISL:CATA:1,2017-02-05T23:00:00Z,30.3085,-88.1395,2.288,9.88,1111122 
DISL,ioos:station:DISL:CATA:1,2017-02-05T23:30:00Z,30.3085,-88.1395,2.272,8.44,1111122 
DISL,ioos:station:DISL:CATA:1,2017-02-06T00:00:00Z,30.3085,-88.1395,2.277,7.77,1111122 
DISL,ioos:station:DISL:CATA:1,2017-02-06T00:30:00Z,30.3085,-88.1395,2.268,7.26,1111122 
DISL,ioos:station:DISL:CATA:1,2017-02-06T01:00:00Z,30.3085,-88.1395,2.258,6.98,1111122 
DISL,ioos:station:DISL:CATA:1,2017-02-06T01:30:00Z,30.3085,-88.1395,2.238,6.91,1111122 
DISL,ioos:station:DISL:CATA:1,2017-02-06T02:00:00Z,30.3085,-88.1395,2.222,6.56,1111122 
DISL,ioos:station:DISL:CATA:1,2017-02-06T02:30:00Z,30.3085,-88.1395,2.205,7.08,1111122 
DISL,ioos:station:DISL:CATA:1,2017-02-06T03:00:00Z,30.3085,-88.1395,2.192,6.86,1111122 
DISL,ioos:station:DISL:CATA:1,2017-02-06T03:30:00Z,30.3085,-88.1395,2.161,6.81,1111122 
DISL,ioos:station:DISL:CATA:1,2017-02-06T04:00:00Z,30.3085,-88.1395,2.126,7.61,1111122 
DISL,ioos:station:DISL:CATA:1,2017-02-06T04:30:00Z,30.3085,-88.1395,2.092,8.37,1111122 
DISL,ioos:station:DISL:CATA:1,2017-02-06T05:00:00Z,30.3085,-88.1395,2.054,10.21,1111122 
DISL,ioos:station:DISL:CATA:1,2017-02-06T05:30:00Z,30.3085,-88.1395,2.018,10.81,1111122 
DISL,ioos:station:DISL:CATA:1,2017-02-06T06:00:00Z,30.3085,-88.1395,1.978,10.99,1111122 
DISL,ioos:station:DISL:CATA:1,2017-02-06T06:30:00Z,30.3085,-88.1395,1.944,10.88,1111122 
DISL,ioos:station:DISL:CATA:1,2017-02-06T07:00:00Z,30.3085,-88.1395,1.905,10.72,1111122 
DISL,ioos:station:DISL:CATA:1,2017-02-06T07:30:00Z,30.3085,-88.1395,1.878,10.72,1111122 
DISL,ioos:station:DISL:CATA:1,2017-02-06T08:00:00Z,30.3085,-88.1395,1.852,10.67,1111122 
DISL,ioos:station:DISL:CATA:1,2017-02-06T08:30:00Z,30.3085,-88.1395,1.836,10.77,1111122 
DISL,ioos:station:DISL:CATA:1,2017-02-06T09:00:00Z,30.3085,-88.1395,1.821,10.82,1111122 
DISL,ioos:station:DISL:CATA:1,2017-02-06T09:30:00Z,30.3085,-88.1395,1.816,10.91,1111122 
DISL,ioos:station:DISL:CATA:1,2017-02-06T10:00:00Z,30.3085,-88.1395,1.82,10.99,1111122 
DISL,ioos:station:DISL:CATA:1,2017-02-06T10:30:00Z,30.3085,-88.1395,1.826,10.99,1111122 
DISL,ioos:station:DISL:CATA:1,2017-02-06T11:00:00Z,30.3085,-88.1395,1.824,10.99,1111122 
DISL,ioos:station:DISL:CATA:1,2017-02-06T11:30:00Z,30.3085,-88.1395,1.838,10.96,1111122 
DISL,ioos:station:DISL:CATA:1,2017-02-06T12:00:00Z,30.3085,-88.1395,1.849,10.92,1111122 
DISL,ioos:station:DISL:CATA:1,2017-02-06T12:30:00Z,30.3085,-88.1395,1.864,10.86,1111122 
DISL,ioos:station:DISL:CATA:1,2017-02-06T13:00:00Z,30.3085,-88.1395,1.882,10.69,1111122 
DISL,ioos:station:DISL:CATA:1,2017-02-06T13:30:00Z,30.3085,-88.1395,1.906,10.81,1111122 
DISL,ioos:station:DISL:CATA:1,2017-02-06T14:00:00Z,30.3085,-88.1395,1.933,11.19,1111122 
DISL,ioos:station:DISL:CATA:1,2017-02-06T14:30:00Z,30.3085,-88.1395,1.957,11.11,1111122 